Location: Shenandoah County Park
(38.9356°N, 78.4524°W)
Time: 22:22:06
(UTC-05:00)

ISS - Visible Passes

Search period start: 05 December 2021 00:00
Search period end: 15 December 2021 00:00
Orbit: 417 x 422 km, 51.6° (Epoch: 06 December)

Date Brightness Start Highest point End Pass type
(mag) Time Alt. Az. Time Alt. Az. Time Alt. Az.
05 Dec -2.2 17:26:49 10° NNW 17:29:30 21° NNE 17:32:05 10° ENE visible
05 Dec -1.9 19:03:12 10° WNW 19:05:06 30° WNW 19:05:06 30° WNW visible
06 Dec -3.9 18:15:47 10° NW 18:19:11 78° NE 18:20:30 34° ESE visible
07 Dec -3.4 17:28:28 10° NW 17:31:46 46° NE 17:35:02 10° ESE visible
07 Dec -1.1 19:05:55 10° W 19:08:20 18° SW 19:09:19 16° SSW visible
08 Dec -1.9 18:18:01 10° WNW 18:21:05 31° SW 18:24:06 10° SSE visible
09 Dec -3.0 17:30:26 10° WNW 17:33:45 57° SW 17:37:04 10° SE visible
10 Dec 0.0 18:22:17 10° WSW 18:22:42 10° SW 18:23:08 10° SW visible
11 Dec -0.6 17:33:06 10° W 17:35:29 18° SW 17:37:52 10° S visible
